Content
SEND FEEDBACK

Daily
Averages
Monthly
Summary
United States of America

MIAMI SPRINGS, FLORIDA


Home > North America > United States > Florida
Elevation: 13 feet     Latitude: 25 49N     Longitude: 080 16W

WEATHER
 
SELECT A DAY
Number of Records: 189,104;   Date Range: 1/1/95 - 12/26/14
 
SHARE

PRINT THIS DATA

[ ← Previous Day ]
WEATHER ALMANAC - JANUARY 31, 2013
[ Next Day → ]
[ °C ]   °F
Weather ElementAverageHighLow
Temperature68.9 °F75 °F (8:53 am)63 °F (11:53 pm)
Dewpoint61.1 °F71.1 °F (7:53 am)42.1 °F (11:53 pm)
Humidity77.1 %93 % (1:53 am)46 % (11:53 pm)
Barometer30.09 in30.18 in (9:53 pm)29.98 in (3:53 am)
Wind Speed7.4 mph12.7 mph (9:11 am)
Wind Gust23 mph (9:17 am)
Weather ElementAverage
Visibility9.8 mi
Wind DirectionWSW (259 °)

Weather ElementTotal
Precipitation---
Cooling Degree Days4 (Base 65)
Growing Degree Days19 (Base 50)
Averaged from 29 records on January 31, 2013
WEATHER CONDITIONS BREAKOUT
WIND DIRECTION BREAKOUT
WEATHER BY HOUR - JANUARY 31, 2013
[ °C ]   °F
Local TimeTemperatureDewpointHumidityBarometerVisibilityWind DirectionWind SpeedGust SpeedPrecipitationEventsConditions
1:53 AM71.1 °F69.1 °F93 %30.01 in10.0 miSouth (180°)4.6 mphClear
2:53 AM71.1 °F69.1 °F93 %29.99 in10.0 miSouth (180°)4.6 mphClear
3:53 AM72.0 °F70.0 °F93 %29.98 in10.0 miSouth (180°)5.8 mphClear
4:53 AM72.0 °F69.1 °F91 %29.99 in7.0 miSouth (190°)4.6 mphPartly Cloudy
5:53 AM71.1 °F69.1 °F93 %29.99 in8.0 miSouth (180°)4.6 mphPartly Cloudy
6:53 AM72.0 °F70.0 °F93 %30.01 in8.0 miSouth (180°)4.6 mphPartly Cloudy
7:53 AM73.9 °F71.1 °F91 %30.03 in10.0 miSouth (190°)6.9 mphMostly Cloudy
8:53 AM75.0 °F71.1 °F87 %30.07 in10.0 miSW (230°)9.2 mphMostly Cloudy
9:11 AM73.4 °F68.0 °F83 %30.09 in10.0 miNW (310°)12.7 mph20.7 mphOvercast
9:17 AM66.2 °F62.6 °F88 %30.10 in10.0 miNW (320°)11.5 mph23.0 mphOvercast
9:28 AM66.2 °F60.8 °F83 %30.10 in10.0 miNNW (340°)12.7 mph20.7 mphOvercast
9:53 AM66.0 °F62.1 °F87 %30.11 in10.0 miNNW (340°)8.1 mphOvercast
10:27 AM66.2 °F62.6 °F88 %30.11 in10.0 miNNW (330°)8.1 mphOvercast
10:37 AM66.2 °F60.8 °F83 %30.12 in10.0 miNW (320°)11.5 mph19.6 mphOvercast
10:53 AM66.9 °F61.0 °F81 %30.13 in10.0 miNW (320°)10.4 mph18.4 mphOvercast
11:49 AM69.8 °F60.8 °F73 %30.12 in10.0 miNorth (350°)8.1 mphMostly Cloudy
11:53 AM70.0 °F61.0 °F73 %30.12 in10.0 miNNW (330°)8.1 mphMostly Cloudy
12:53 PM72.0 °F61.0 °F68 %30.09 in10.0 miNNW (340°)9.2 mphMostly Cloudy
1:53 PM73.0 °F61.0 °F66 %30.07 in10.0 miNNW (330°)9.2 mphMostly Cloudy
2:53 PM70.0 °F60.1 °F71 %30.06 in10.0 miCalmMostly Cloudy
3:53 PM68.0 °F57.9 °F70 %30.09 in10.0 miVariable5.8 mphOvercast
4:53 PM66.0 °F55.9 °F70 %30.10 in10.0 miNNW (330°)9.2 mphMostly Cloudy
5:53 PM66.0 °F55.0 °F68 %30.11 in10.0 miNNW (340°)6.9 mphMostly Cloudy
6:53 PM66.2 °F51.8 °F60 %30.13 in10.0 miNorth (350°)6.9 mphMostly Cloudy
7:53 PM66.9 °F53.1 °F61 %30.15 in10.0 miNNW (330°)3.5 mphMostly Cloudy
8:53 PM66.0 °F53.1 °F63 %30.16 in10.0 miVariable3.5 mphScattered Clouds
9:53 PM66.0 °F52.0 °F60 %30.18 in10.0 miNorth (350°)5.8 mphPartly Cloudy
10:53 PM64.9 °F51.1 °F61 %30.18 in10.0 miNW (320°)9.2 mphMostly Cloudy
11:53 PM63.0 °F42.1 °F46 %30.18 in10.0 miNorth (350°)8.1 mphMostly Cloudy
Hourly data recorded from KMIA, located miles away from Miami Springs, Florida







STORIES FROM OUR PARTNERS